FW1981 Weather Reports


Display with metric or nautical units.
time (UTC)temp
F
wind
direction
speed
MPH
gust
MPH
rain 1hr
in
rain 24hr
in
rain mn
in
humidity
%
barometer
mb
20260901224522 63 153 0.0 1.0 0.00 0.02 0.02 89 1020.3
20260901224030 63 153 0.0 1.0 0.00 0.02 0.02 89 1020.2
20260901223514 62 153 0.0 1.0 0.00 0.02 0.02 89 1020.3
20260901223026 63 154 0.0 2.0 0.01 0.02 0.02 89 1020.2
20260901222529 63 155 1.0 2.0 0.01 0.02 0.02 89 1020.1
20260901222014 63 142 1.0 1.0 0.01 0.02 0.02 89 1020.2
20260901221522 63 119 0.0 2.0 0.02 0.02 0.02 89 1020.2
20260901221018 63 174 0.0 3.0 0.02 0.02 0.02 88 1020.2
20260901220514 63 165 2.0 3.0 0.02 0.02 0.02 88 1020.1
20260901220022 64 91 0.0 1.0 0.02 0.02 0.02 88 1020.2
20260901215519 64 309 0.0 1.0 0.02 0.02 0.02 88 1020.1
20260901215015 64 309 0.0 2.0 0.02 0.02 0.02 88 1020.1
20260901214523 64 305 1.0 4.0 0.02 0.02 0.02 88 1019.9
20260901214019 64 282 1.0 4.0 0.02 0.02 0.02 87 1020.0
20260901213526 65 320 0.0 2.0 0.02 0.02 0.02 88 1019.9
20260901213021 65 334 1.0 3.0 0.01 0.01 0.01 87 1019.9
20260901212531 65 334 2.0 3.0 0.01 0.01 0.01 86 1019.9
20260901212026 66 307 0.0 1.0 0.01 0.01 0.01 85 1019.7
20260901211523 66 290 0.0 1.0 0.00 0.00 0.00 84 1019.6
20260901211018 66 232 0.0 2.0 0.00 0.00 0.00 83 1019.6
20260901210514 67 295 0.0 2.0 0.00 0.00 0.00 82 1019.4
20260901160025 68 267 2.0 6.0 0.00 0.00 0.00 76 1019.4
20260901155515 68 252 2.0 6.0 0.00 0.00 0.00 75 1019.5
20260901155022 68 266 1.0 5.0 0.00 0.00 0.00 76 1019.5
20260901154519 67 212 1.0 8.0 0.00 0.00 0.00 76 1019.5
20260901154015 67 242 3.0 8.0 0.00 0.00 0.00 75 1019.5
20260901153522 67 248 2.0 7.0 0.00 0.00 0.00 77 1019.5
20260901153019 67 282 2.0 7.0 0.00 0.00 0.00 75 1019.5
20260901152515 67 243 2.0 7.0 0.00 0.00 0.00 74 1019.5
20260901152022 67 242 1.0 6.0 0.00 0.00 0.00 75 1019.4
20260901151519 68 223 2.0 6.0 0.00 0.00 0.00 75 1019.4
20260901151015 68 359 2.0 6.0 0.00 0.00 0.00 74 1019.4
20260901150533 68 245 3.0 6.0 0.00 0.00 0.00 73 1019.4
20260901150019 69 259 3.0 6.0 0.00 0.00 0.00 72 1019.4
20260901145515 70 262 3.0 6.0 0.00 0.00 0.00 71 1019.4
20260901145022 70 1 2.0 7.0 0.00 0.00 0.00 70 1019.4
20260901144519 70 200 2.0 7.0 0.00 0.00 0.00 67 1019.2
20260901144015 71 203 3.0 7.0 0.00 0.00 0.00 69 1019.1
20260901143522 70 150 2.0 6.0 0.00 0.00 0.00 73 1019.1
20260901143036 69 227 3.0 6.0 0.00 0.00 0.00 71 1019.2
20260901142516 70 222 1.0 5.0 0.00 0.00 0.00 70 1019.1
20260901142022 69 305 2.0 8.0 0.00 0.00 0.00 73 1019.2
20260901141520 69 229 3.0 8.0 0.00 0.00 0.00 74 1019.2
20260901141015 69 229 1.0 8.0 0.00 0.00 0.00 76 1019.2
20260901140533 68 184 1.0 6.0 0.00 0.00 0.00 77 1019.3
20260901140023 68 284 2.0 5.0 0.00 0.00 0.00 76 1019.3
20260901135515 68 237 1.0 4.0 0.00 0.00 0.00 77 1019.4
20260901135023 68 187 2.0 4.0 0.00 0.00 0.00 76 1019.2
20260901134519 68 248 1.0 6.0 0.00 0.00 0.00 76 1019.2
20260901134026 68 238 2.0 6.0 0.00 0.00 0.00 75 1019.4
20260901133522 69 240 0.0 4.0 0.00 0.00 0.00 76 1019.4
20260901133019 69 173 1.0 6.0 0.00 0.00 0.00 76 1019.3
20260901132516 68 162 2.0 6.0 0.00 0.00 0.00 76 1019.2
20260901132033 68 197 2.0 5.0 0.00 0.00 0.00 76 1019.2
20260901131520 68 240 1.0 5.0 0.00 0.00 0.00 77 1019.2
20260901131015 68 202 1.0 5.0 0.00 0.00 0.00 77 1019.1
20260901130522 68 356 2.0 6.0 0.00 0.00 0.00 76 1019.2
20260901130019 68 226 2.0 7.0 0.00 0.00 0.00 76 1019.1
20260901125515 68 217 2.0 7.0 0.00 0.00 0.00 74 1019.2
20260901125033 69 240 1.0 6.0 0.00 0.00 0.00 73 1019.3
20260901124519 70 78 2.0 6.0 0.00 0.00 0.00 72 1019.2
20260901124026 70 259 1.0 7.0 0.00 0.00 0.00 73 1019.4
20260901123522 70 226 2.0 6.0 0.00 0.00 0.00 72 1019.3
20260901123020 69 323 0.0 6.0 0.00 0.00 0.00 72 1019.3
20260901122515 69 252 0.0 5.0 0.00 0.00 0.00 73 1019.3
20260901122027 69 164 1.0 5.0 0.00 0.00 0.00 73 1019.2
20260901121520 69 257 3.0 5.0 0.00 0.00 0.00 71 1019.2
20260901121015 68 271 1.0 5.0 0.00 0.00 0.00 72 1019.0
20260901120523 68 202 2.0 5.0 0.00 0.00 0.00 73 1018.9
20260901120023 68 226 1.0 5.0 0.00 0.00 0.00 75 1018.9
20260901115520 67 209 2.0 5.0 0.00 0.00 0.00 77 1018.8
20260901115026 67 215 2.0 4.0 0.00 0.00 0.00 80 1018.8
20260901114522 66 118 1.0 3.0 0.00 0.00 0.00 82 1018.8
20260901114020 65 141 1.0 2.0 0.00 0.00 0.00 80 1018.8
20260901113515 65 119 0.0 2.0 0.00 0.00 0.00 79 1018.7
20260901113023 67 117 1.0 2.0 0.00 0.00 0.00 78 1018.9
20260901112523 67 210 1.0 1.0 0.00 0.00 0.00 80 1018.9
20260901112019 66 257 0.0 1.0 0.00 0.00 0.00 81 1018.9
20260901111515 65 258 0.0 1.0 0.00 0.00 0.00 80 1019.0
20260901111022 65 350 0.0 0.0 0.00 0.00 0.00 79 1018.9
20260901110519 65 350 0.0 0.0 0.00 0.00 0.00 79 1019.0
20260901110015 65 350 0.0 0.0 0.00 0.00 0.00 81 1018.9
20260901105523 64 350 0.0 0.0 0.00 0.00 0.00 85 1018.9
20260901105026 62 350 0.0 0.0 0.00 0.00 0.00 89 1018.8
20260901104522 60 350 0.0 0.0 0.00 0.00 0.00 90 1018.9
20260901104031 58 350 0.0 0.0 0.00 0.00 0.00 89 1018.8
20260901103527 57 350 0.0 0.0 0.00 0.00 0.00 89 1018.8
20260901103019 57 350 0.0 0.0 0.00 0.00 0.00 88 1018.8
20260901102516 57 350 0.0 0.0 0.00 0.00 0.00 89 1018.6
20260901102022 57 350 0.0 0.0 0.00 0.00 0.00 90 1018.6
20260901101520 57 350 0.0 0.0 0.00 0.00 0.00 92 1018.5
20260901101016 56 350 0.0 0.0 0.00 0.00 0.00 91 1018.5
20260901100523 56 350 0.0 0.0 0.00 0.00 0.00 91 1018.5
20260901100022 56 350 0.0 0.0 0.00 0.00 0.00 92 1018.5
20260901095520 56 350 0.0 0.0 0.00 0.00 0.00 92 1018.5
20260901095015 56 350 0.0 0.0 0.00 0.00 0.00 92 1018.5
20260901094523 56 350 0.0 0.0 0.00 0.00 0.00 91 1018.5
20260901094019 56 350 0.0 0.0 0.00 0.00 0.00 91 1018.6
20260901093515 56 350 0.0 0.0 0.00 0.00 0.00 91 1018.5
20260901093023 56 350 0.0 0.0 0.00 0.00 0.00 91 1018.4
20260901092522 56 350 0.0 0.0 0.00 0.00 0.00 91 1018.5
20260901092020 56 350 0.0 0.0 0.00 0.00 0.00 91 1018.4
20260901091527 55 350 0.0 0.0 0.00 0.00 0.00 91 1018.3
20260901091022 55 350 0.0 0.0 0.00 0.00 0.00 90 1018.4
20260901090531 55 350 0.0 0.0 0.00 0.00 0.00 90 1018.4
20260901090016 55 350 0.0 0.0 0.00 0.00 0.00 89 1018.4
20260901085523 56 350 0.0 1.0 0.00 0.00 0.00 90 1018.5
20260901085020 55 350 0.0 1.0 0.00 0.00 0.00 90 1018.4
20260901084516 55 350 0.0 1.0 0.00 0.00 0.00 90 1018.4
20260901084023 55 340 1.0 1.0 0.00 0.00 0.00 90 1018.4
20260901083520 54 337 1.0 1.0 0.00 0.00 0.00 90 1018.4
20260901083016 54 336 0.0 1.0 0.00 0.00 0.00 90 1018.5
20260901082523 54 336 0.0 0.0 0.00 0.00 0.00 90 1018.4
20260901082020 54 336 0.0 0.0 0.00 0.00 0.00 89 1018.4
20260901081517 54 336 0.0 0.0 0.00 0.00 0.00 89 1018.5
20260901081034 55 336 0.0 0.0 0.00 0.00 0.00 89 1018.4
20260901080520 55 336 0.0 0.0 0.00 0.00 0.00 88 1018.3
20260901080026 56 336 0.0 1.0 0.00 0.00 0.00 88 1018.4
20260901075523 56 336 0.0 1.0 0.00 0.01 0.00 89 1018.3
20260901075020 55 336 0.0 0.0 0.00 0.01 0.00 89 1018.4
20260901074515 55 336 0.0 0.0 0.00 0.01 0.00 88 1018.5
20260901074023 55 336 0.0 0.0 0.00 0.01 0.00 89 1018.6
20260901073520 55 336 0.0 0.0 0.00 0.01 0.00 89 1018.6
20260901073016 55 336 0.0 1.0 0.00 0.01 0.00 89 1018.6
20260901072524 55 336 0.0 1.0 0.00 0.01 0.00 90 1018.6
20260901072024 55 336 0.0 1.0 0.00 0.01 0.00 89 1018.5
20260901071520 55 336 0.0 1.0 0.00 0.01 0.00 89 1018.5
20260901071015 55 336 0.0 0.0 0.00 0.01 0.00 88 1018.5
20260901070533 55 336 0.0 0.0 0.00 0.01 0.00 88 1018.6
20260901070021 56 336 0.0 0.0 0.00 0.01 0.00 88 1018.6
20260901065515 56 336 0.0 0.0 0.00 0.01 0.00 89 1018.6
20260901065023 55 336 0.0 0.0 0.00 0.01 0.00 90 1018.6
20260901064519 54 336 0.0 0.0 0.00 0.01 0.00 90 1018.7
20260901064015 54 336 0.0 0.0 0.00 0.01 0.00 89 1018.6
20260901063523 54 336 0.0 0.0 0.00 0.01 0.00 89 1018.5
20260901063020 54 336 0.0 0.0 0.00 0.01 0.00 89 1018.5
20260901062529 54 336 0.0 0.0 0.00 0.01 0.00 89 1018.3
20260901062016 54 336 0.0 0.0 0.00 0.01 0.00 89 1018.3
20260901061523 54 336 0.0 0.0 0.00 0.01 0.00 89 1018.3
20260901061033 54 336 0.0 0.0 0.00 0.01 0.00 89 1018.3
20260901060520 54 336 0.0 0.0 0.00 0.01 0.00 89 1018.2
20260901060020 54 336 0.0 1.0 0.00 0.01 0.00 90 1018.2
20260901055523 53 336 0.0 1.0 0.00 0.03 0.00 91 1018.2
20260901055020 53 336 0.0 1.0 0.00 0.03 0.00 90 1018.1
20260901054517 53 336 0.0 0.0 0.00 0.03 0.00 89 1018.3
20260901054023 53 336 0.0 0.0 0.00 0.03 0.00 89 1018.2
20260901053522 53 336 0.0 0.0 0.00 0.03 0.00 90 1018.2
20260901053020 53 336 0.0 0.0 0.00 0.03 0.00 89 1018.2
20260901052516 53 336 0.0 0.0 0.00 0.03 0.00 89 1018.4
20260901052023 54 336 0.0 0.0 0.00 0.03 0.00 89 1018.3
20260901051523 54 336 0.0 0.0 0.00 0.03 0.00 89 1018.3
20260901051020 54 336 0.0 0.0 0.00 0.03 0.00 89 1018.4
20260901050516 54 336 0.0 0.0 0.00 0.03 0.00 88 1018.6
20260901050028 54 336 0.0 0.0 0.00 0.03 0.00 88 1018.6
20260901045522 55 336 0.0 0.0 0.00 0.16 0.00 87 1018.6
20260901045020 55 336 0.0 0.0 0.00 0.16 0.00 87 1018.6
20260901044516 55 336 0.0 0.0 0.00 0.16 0.00 86 1018.5
20260901044024 56 336 0.0 0.0 0.00 0.16 0.00 87 1018.5
20260901043523 56 336 0.0 0.0 0.00 0.16 0.00 87 1018.5
20260901043020 55 336 0.0 0.0 0.00 0.16 0.00 87 1018.5
20260901042528 56 336 0.0 0.0 0.00 0.16 0.00 86 1018.4
20260901042023 56 336 0.0 1.0 0.00 0.16 0.00 88 1018.5
20260901041526 55 336 0.0 0.0 0.00 0.16 0.00 88 1018.5
20260901041018 56 336 0.0 0.0 0.00 0.16 0.00 86 1018.5
20260901040515 56 336 0.0 0.0 0.00 0.16 0.00 87 1018.5
20260901040024 56 336 0.0 0.0 0.00 0.16 0.00 87 1018.5
20260901035524 56 336 0.0 0.0 0.00 0.16 0.00 87 1018.3
20260901035020 56 336 0.0 0.0 0.00 0.16 0.00 87 1018.3
20260901034516 56 336 0.0 0.0 0.00 0.16 0.00 88 1018.2
20260901034024 56 336 0.0 1.0 0.00 0.16 0.00 87 1018.2
20260901033523 56 336 0.0 1.0 0.00 0.16 0.00 87 1018.2
20260901033020 56 336 0.0 1.0 0.00 0.16 0.00 88 1018.2
20260901032516 55 336 0.0 0.0 0.00 0.16 0.00 86 1018.1
20260901032024 56 336 0.0 0.0 0.00 0.16 0.00 85 1018.1
20260901031523 57 336 0.0 0.0 0.00 0.16 0.00 85 1018.3
20260901031020 57 336 0.0 0.0 0.00 0.16 0.00 86 1018.2
20260901030518 56 336 0.0 0.0 0.00 0.16 0.00 88 1018.3
20260901030021 56 336 0.0 0.0 0.00 0.16 0.00 87 1018.3
20260901025523 56 336 0.0 0.0 0.00 0.16 0.16 87 1018.3
20260901025022 55 336 0.0 0.0 0.00 0.16 0.16 87 1018.4
20260901024520 55 336 0.0 0.0 0.00 0.16 0.16 85 1018.4
20260901024017 56 336 0.0 0.0 0.00 0.16 0.16 84 1018.4
20260901023524 56 336 0.0 0.0 0.00 0.16 0.16 83 1018.2
20260901023020 57 336 0.0 0.0 0.00 0.16 0.16 83 1018.2
20260901022518 57 336 0.0 0.0 0.00 0.16 0.16 84 1018.3
20260901022016 57 336 0.0 0.0 0.00 0.16 0.16 83 1018.3
20260901021524 58 336 0.0 0.0 0.00 0.16 0.16 82 1018.3
20260901021022 58 336 0.0 0.0 0.00 0.16 0.16 82 1018.3
20260901020520 59 336 0.0 0.0 0.00 0.16 0.16 81 1018.3
20260901020019 59 336 0.0 1.0 0.00 0.16 0.16 80 1018.2
20260901015516 60 336 0.0 1.0 0.00 0.18 0.16 80 1018.2
20260901015024 60 336 0.0 1.0 0.00 0.18 0.16 80 1018.2
20260901014533 60 336 0.0 1.0 0.00 0.18 0.16 80 1018.2
20260901014020 60 338 1.0 1.0 0.00 0.18 0.16 81 1018.2
20260901013519 60 339 0.0 1.0 0.00 0.18 0.16 80 1018.2
20260901013027 60 326 0.0 1.0 0.00 0.18 0.16 80 1018.3
20260901012524 60 309 0.0 1.0 0.00 0.18 0.16 81 1018.3
20260901012023 60 309 0.0 0.0 0.00 0.18 0.16 81 1018.3
20260901011521 60 309 0.0 0.0 0.00 0.18 0.16 80 1018.3
20260901011018 60 309 0.0 0.0 0.00 0.18 0.16 80 1018.3
20260901010516 60 309 0.0 1.0 0.00 0.18 0.16 80 1018.2
20260901010035 60 309 0.0 1.0 0.00 0.18 0.16 80 1018.2
20260901005523 60 309 0.0 1.0 0.00 0.18 0.16 80 1018.0
20260901005020 60 309 0.0 2.0 0.00 0.18 0.16 80 1018.0
20260901004518 61 309 0.0 2.0 0.00 0.18 0.16 80 1018.1
20260901004027 61 326 0.0 2.0 0.00 0.18 0.16 80 1018.1
20260901001021 61 339 0.0 2.0 0.00 0.18 0.16 77 1017.7
20260901000519 61 307 1.0 2.0 0.00 0.18 0.16 77 1017.8
20260901000028 61 300 1.0 2.0 0.00 0.18 0.16 77 1017.7
20260831233521 62 300 0.0 2.0 0.00 0.18 0.16 74 1017.3
20260831233019 62 295 1.0 3.0 0.00 0.18 0.16 74 1017.3
20260831232527 62 296 1.0 3.0 0.00 0.18 0.16 74 1017.3
20260831231517 63 290 0.0 2.0 0.00 0.18 0.16 73 1017.2
20260831225027 64 319 2.0 4.0 0.00 0.18 0.16 71 1016.9